owner,sensor,date,latitude,longitude,vertical_datum,wind_speed,wind_to_direction,wind_speed_of_gust,qcFlag 
TABS,ioos:station:wmo:42045:1,2003-08-01T00:09:00Z,26.2168,-96.4998,4.0,4.118737671,165.0867499,6.51,'11111222,11111222,11111222' 
TABS,ioos:station:wmo:42045:1,2003-08-01T00:39:00Z,26.2168,-96.4998,4.0,4.351367601,161.2321943,6.65,'11111222,11111222,11111222' 
TABS,ioos:station:wmo:42045:1,2003-08-01T01:09:00Z,26.2168,-96.4998,4.0,4.594975517,155.1641658,7.06,'11111222,11111222,11111222' 
TABS,ioos:station:wmo:42045:1,2003-08-01T01:39:00Z,26.2168,-96.4998,4.0,5.125192679,158.2403705,7.61,'11111222,11111222,11111222' 
TABS,ioos:station:wmo:42045:1,2003-08-01T02:09:00Z,26.2168,-96.4998,4.0,5.447907855,156.8707217,8.11,'11111222,11111222,11111222' 
TABS,ioos:station:wmo:42045:1,2003-08-01T02:39:00Z,26.2168,-96.4998,4.0,5.894276885,159.7513951,8.2,'11111222,11111222,11111222' 
TABS,ioos:station:wmo:42045:1,2003-08-01T03:09:00Z,26.2168,-96.4998,4.0,6.028474102,157.2634239,8.28,'11111222,11111222,11111222' 
TABS,ioos:station:wmo:42045:1,2003-08-01T03:39:00Z,26.2168,-96.4998,4.0,6.720029762,164.640437,9.8,'11111222,11111222,11111222' 
TABS,ioos:station:wmo:42045:1,2003-08-01T04:09:00Z,26.2168,-96.4998,4.0,7.035978965,166.1022517,9.31,'11111222,11111222,11111222' 
TABS,ioos:station:wmo:42045:1,2003-08-01T04:39:00Z,26.2168,-96.4998,4.0,7.770315309,169.0952139,10.49,'11111222,11111222,11111222' 
TABS,ioos:station:wmo:42045:1,2003-08-01T05:09:00Z,26.2168,-96.4998,4.0,8.135170558,169.1599304,10.59,'11111222,11111222,11111222' 
TABS,ioos:station:wmo:42045:1,2003-08-01T05:39:00Z,26.2168,-96.4998,4.0,7.284023613,166.7462094,10.44,'11111222,11111222,11111222' 
TABS,ioos:station:wmo:42045:1,2003-08-01T06:09:00Z,26.2168,-96.4998,4.0,8.048701759,168.9695208,10.83,'11111222,11111222,11111222' 
TABS,ioos:station:wmo:42045:1,2003-08-01T06:39:00Z,26.2168,-96.4998,4.0,8.171682813,172.4055848,11.19,'11111222,11111222,11111222' 
TABS,ioos:station:wmo:42045:1,2003-08-01T07:09:00Z,26.2168,-96.4998,4.0,7.898765726,172.4343453,10.59,'11111222,11111222,11111222' 
TABS,ioos:station:wmo:42045:1,2003-08-01T07:39:00Z,26.2168,-96.4998,4.0,7.42596795,174.3587263,9.78,'11111222,11111222,11111222' 
TABS,ioos:station:wmo:42045:1,2003-08-01T08:09:00Z,26.2168,-96.4998,4.0,7.464187833,176.4669783,9.75,'11111222,11111222,11111222' 
TABS,ioos:station:wmo:42045:1,2003-08-01T08:39:00Z,26.2168,-96.4998,4.0,7.541697422,178.7845702,10.08,'11111222,11111222,11111222' 
TABS,ioos:station:wmo:42045:1,2003-08-01T09:09:00Z,26.2168,-96.4998,4.0,7.381957735,183.2618348,10.33,'11111222,11111222,11111222' 
TABS,ioos:station:wmo:42045:1,2003-08-01T09:39:00Z,26.2168,-96.4998,4.0,6.248199741,182.935877,8.69,'11111222,11111222,11111222' 
TABS,ioos:station:wmo:42045:1,2003-08-01T10:09:00Z,26.2168,-96.4998,4.0,6.502314972,183.5270679,9.39,'11111222,11111222,11111222' 
TABS,ioos:station:wmo:42045:1,2003-08-01T10:39:00Z,26.2168,-96.4998,4.0,6.008527274,183.0530858,8.36,'11111222,11111222,11111222' 
TABS,ioos:station:wmo:42045:1,2003-08-01T11:09:00Z,26.2168,-96.4998,4.0,6.04073671,183.4167907,8.22,'11111222,11111222,11111222' 
TABS,ioos:station:wmo:42045:1,2003-08-01T11:39:00Z,26.2168,-96.4998,4.0,5.631518445,187.7561939,7.63,'11111222,11111222,11111222' 
TABS,ioos:station:wmo:42045:1,2003-08-01T12:09:00Z,26.2168,-96.4998,4.0,5.717070928,186.5285316,8.16,'11111222,11111222,11111222' 
TABS,ioos:station:wmo:42045:1,2003-08-01T12:39:00Z,26.2168,-96.4998,4.0,5.532964847,190.5180612,7.43,'11111222,11111222,11111222' 
TABS,ioos:station:wmo:42045:1,2003-08-01T13:09:00Z,26.2168,-96.4998,4.0,5.634696088,182.3395843,7.71,'11111222,11111222,11111222' 
TABS,ioos:station:wmo:42045:1,2003-08-01T13:39:00Z,26.2168,-96.4998,4.0,5.511823655,185.1005149,7.69,'11111222,11111222,11111222' 
TABS,ioos:station:wmo:42045:1,2003-08-01T14:09:00Z,26.2168,-96.4998,4.0,5.041953986,185.3489516,6.98,'11111222,11111222,11111222' 
TABS,ioos:station:wmo:42045:1,2003-08-01T14:39:00Z,26.2168,-96.4998,4.0,5.117665483,176.8638594,7.17,'11111222,11111222,11111222' 
TABS,ioos:station:wmo:42045:1,2003-08-01T15:09:00Z,26.2168,-96.4998,4.0,4.543886002,172.0306187,6.31,'11111222,11111222,11111222' 
TABS,ioos:station:wmo:42045:1,2003-08-01T15:39:00Z,26.2168,-96.4998,4.0,5.893835763,170.9214738,7.81,'11111222,11111222,11111222' 
TABS,ioos:station:wmo:42045:1,2003-08-01T16:09:00Z,26.2168,-96.4998,4.0,6.419384706,169.4079942,8.21,'11111222,11111222,11111222' 
TABS,ioos:station:wmo:42045:1,2003-08-01T16:39:00Z,26.2168,-96.4998,4.0,5.67948061,175.2533355,7.59,'11111222,11111222,11111222' 
TABS,ioos:station:wmo:42045:1,2003-08-01T17:09:00Z,26.2168,-96.4998,4.0,5.410452846,180.7415176,6.89,'11111222,11111222,11111222' 
TABS,ioos:station:wmo:42045:1,2003-08-01T17:39:00Z,26.2168,-96.4998,4.0,6.32809608,177.1016404,8.12,'11111222,11111222,11111222' 
TABS,ioos:station:wmo:42045:1,2003-08-01T18:09:00Z,26.2168,-96.4998,4.0,5.326208783,173.3155273,7.44,'11111222,11111222,11111222' 
TABS,ioos:station:wmo:42045:1,2003-08-01T18:39:00Z,26.2168,-96.4998,4.0,6.169246307,174.4190077,8.06,'11111222,11111222,11111222' 
TABS,ioos:station:wmo:42045:1,2003-08-01T19:09:00Z,26.2168,-96.4998,4.0,6.710961183,175.4705541,8.85,'11111222,11111222,11111222' 
TABS,ioos:station:wmo:42045:1,2003-08-01T19:39:00Z,26.2168,-96.4998,4.0,6.213026638,172.5091825,8.54,'11111222,11111222,11111222' 
TABS,ioos:station:wmo:42045:1,2003-08-01T20:09:00Z,26.2168,-96.4998,4.0,6.937665313,170.3749848,9.83,'11111222,11111222,11111222' 
TABS,ioos:station:wmo:42045:1,2003-08-01T20:39:00Z,26.2168,-96.4998,4.0,7.192690734,171.8475964,9.59,'11111222,11111222,11111222' 
TABS,ioos:station:wmo:42045:1,2003-08-01T21:09:00Z,26.2168,-96.4998,4.0,6.787083321,171.3567604,9.33,'11111222,11111222,11111222' 
TABS,ioos:station:wmo:42045:1,2003-08-01T21:39:00Z,26.2168,-96.4998,4.0,6.539793575,170.494701,8.91,'11111222,11111222,11111222' 
TABS,ioos:station:wmo:42045:1,2003-08-01T22:09:00Z,26.2168,-96.4998,4.0,6.876423489,169.4420011,9.27,'11111222,11111222,11111222' 
TABS,ioos:station:wmo:42045:1,2003-08-01T22:39:00Z,26.2168,-96.4998,4.0,6.883269572,164.4093005,9.74,'11111222,11111222,11111222' 
TABS,ioos:station:wmo:42045:1,2003-08-01T23:09:00Z,26.2168,-96.4998,4.0,6.972008319,168.4163189,9.81,'11111222,11111222,11111222' 
TABS,ioos:station:wmo:42045:1,2003-08-01T23:39:00Z,26.2168,-96.4998,4.0,6.541016741,169.429008,9.52,'11111222,11111222,11111222' 
TABS,ioos:station:wmo:42045:1,2003-08-02T00:09:00Z,26.2168,-96.4998,4.0,5.893835763,170.9214738,8.94,'11111222,11111222,11111222' 
TABS,ioos:station:wmo:42045:1,2003-08-02T00:39:00Z,26.2168,-96.4998,4.0,5.932461546,165.7531828,8.72,'11111222,11111222,11111222' 
TABS,ioos:station:wmo:42045:1,2003-08-02T01:09:00Z,26.2168,-96.4998,4.0,5.631740406,166.2354242,8.97,'11111222,11111222,11111222' 
TABS,ioos:station:wmo:42045:1,2003-08-02T01:39:00Z,26.2168,-96.4998,4.0,5.689613344,169.2630443,8.73,'11111222,11111222,11111222' 
TABS,ioos:station:wmo:42045:1,2003-08-02T02:09:00Z,26.2168,-96.4998,4.0,6.229686991,169.7365192,9.64,'11111222,11111222,11111222' 
TABS,ioos:station:wmo:42045:1,2003-08-02T02:39:00Z,26.2168,-96.4998,4.0,6.097671687,165.3714645,9.47,'11111222,11111222,11111222' 
TABS,ioos:station:wmo:42045:1,2003-08-02T03:09:00Z,26.2168,-96.4998,4.0,6.821297531,171.1455059,10.26,'11111222,11111222,11111222' 
TABS,ioos:station:wmo:42045:1,2003-08-02T03:39:00Z,26.2168,-96.4998,4.0,7.265872281,176.2123716,10.52,'11111222,11111222,11111222' 
TABS,ioos:station:wmo:42045:1,2003-08-02T04:09:00Z,26.2168,-96.4998,4.0,7.136974149,172.7557205,10.39,'11111222,11111222,11111222' 
TABS,ioos:station:wmo:42045:1,2003-08-02T04:39:00Z,26.2168,-96.4998,4.0,7.471934154,170.5253041,10.29,'11111222,11111222,11111222' 
TABS,ioos:station:wmo:42045:1,2003-08-02T05:09:00Z,26.2168,-96.4998,4.0,7.467476147,175.0836559,10.5,'11111222,11111222,11111222' 
TABS,ioos:station:wmo:42045:1,2003-08-02T05:39:00Z,26.2168,-96.4998,4.0,7.30988372,177.0203869,10.64,'11111222,11111222,11111222' 
TABS,ioos:station:wmo:42045:1,2003-08-02T06:09:00Z,26.2168,-96.4998,4.0,7.482412712,181.4552682,10.34,'11111222,11111222,11111222' 
TABS,ioos:station:wmo:42045:1,2003-08-02T06:39:00Z,26.2168,-96.4998,4.0,7.511704201,181.2207054,10.25,'11111222,11111222,11111222' 
TABS,ioos:station:wmo:42045:1,2003-08-02T07:09:00Z,26.2168,-96.4998,4.0,7.708242342,183.9428304,10.48,'11111222,11111222,11111222' 
TABS,ioos:station:wmo:42045:1,2003-08-02T07:39:00Z,26.2168,-96.4998,4.0,7.43690796,185.7107902,10.03,'11111222,11111222,11111222' 
TABS,ioos:station:wmo:42045:1,2003-08-02T08:09:00Z,26.2168,-96.4998,4.0,7.138410187,189.0270615,10.16,'11111222,11111222,11111222' 
TABS,ioos:station:wmo:42045:1,2003-08-02T08:39:00Z,26.2168,-96.4998,4.0,7.328546923,187.8428229,9.89,'11111222,11111222,11111222' 
TABS,ioos:station:wmo:42045:1,2003-08-02T09:09:00Z,26.2168,-96.4998,4.0,7.209105354,186.6914592,10.22,'11111222,11111222,11111222' 
TABS,ioos:station:wmo:42045:1,2003-08-02T09:39:00Z,26.2168,-96.4998,4.0,7.689531845,188.7520173,10.37,'11111222,11111222,11111222' 
TABS,ioos:station:wmo:42045:1,2003-08-02T10:09:00Z,26.2168,-96.4998,4.0,6.80536553,188.5351191,9.6,'11111222,11111222,11111222' 
TABS,ioos:station:wmo:42045:1,2003-08-02T10:39:00Z,26.2168,-96.4998,4.0,6.778679812,187.5445669,9.92,'11111222,11111222,11111222' 
TABS,ioos:station:wmo:42045:1,2003-08-02T11:09:00Z,26.2168,-96.4998,4.0,6.76665353,185.0873034,9.28,'11111222,11111222,11111222' 
TABS,ioos:station:wmo:42045:1,2003-08-02T11:39:00Z,26.2168,-96.4998,4.0,6.447976427,185.3394348,8.73,'11111222,11111222,11111222' 
TABS,ioos:station:wmo:42045:1,2003-08-02T12:09:00Z,26.2168,-96.4998,4.0,6.033324125,185.0398674,8.44,'11111222,11111222,11111222' 
TABS,ioos:station:wmo:42045:1,2003-08-02T12:39:00Z,26.2168,-96.4998,4.0,6.210032206,185.6373461,9.2,'11111222,11111222,11111222' 
TABS,ioos:station:wmo:42045:1,2003-08-02T13:09:00Z,26.2168,-96.4998,4.0,6.514384084,187.4088496,9.38,'11111222,11111222,11111222' 
TABS,ioos:station:wmo:42045:1,2003-08-02T13:39:00Z,26.2168,-96.4998,4.0,6.828067076,186.0531239,9.45,'11111222,11111222,11111222' 
TABS,ioos:station:wmo:42045:1,2003-08-02T14:09:00Z,26.2168,-96.4998,4.0,7.177701582,185.0356337,9.98,'11111222,11111222,11111222' 
TABS,ioos:station:wmo:42045:1,2003-08-02T14:39:00Z,26.2168,-96.4998,4.0,6.552984053,189.6637488,8.99,'11111222,11111222,11111222' 
TABS,ioos:station:wmo:42045:1,2003-08-02T15:09:00Z,26.2168,-96.4998,4.0,6.817690225,189.7112,9.65,'11111222,11111222,11111222' 
TABS,ioos:station:wmo:42045:1,2003-08-02T15:39:00Z,26.2168,-96.4998,4.0,6.835034748,188.4977965,9.09,'11111222,11111222,11111222' 
TABS,ioos:station:wmo:42045:1,2003-08-02T16:09:00Z,26.2168,-96.4998,4.0,6.27341215,183.7474487,9.08,'11111222,11111222,11111222' 
TABS,ioos:station:wmo:42045:1,2003-08-02T16:39:00Z,26.2168,-96.4998,4.0,6.448449426,182.9336018,8.57,'11111222,11111222,11111222' 
TABS,ioos:station:wmo:42045:1,2003-08-02T17:09:00Z,26.2168,-96.4998,4.0,6.383831138,183.7724852,8.61,'11111222,11111222,11111222' 
TABS,ioos:station:wmo:42045:1,2003-08-02T17:39:00Z,26.2168,-96.4998,4.0,6.110818276,180.9378623,8.15,'11111222,11111222,11111222' 
TABS,ioos:station:wmo:42045:1,2003-08-02T18:09:00Z,26.2168,-96.4998,4.0,6.386587508,177.3976543,8.93,'11111222,11111222,11111222' 
TABS,ioos:station:wmo:42045:1,2003-08-02T18:39:00Z,26.2168,-96.4998,4.0,6.628219972,177.1464453,8.34,'11111222,11111222,11111222' 
TABS,ioos:station:wmo:42045:1,2003-08-02T19:09:00Z,26.2168,-96.4998,4.0,6.846407817,171.4322222,9.08,'11111222,11111222,11111222' 
TABS,ioos:station:wmo:42045:1,2003-08-02T19:39:00Z,26.2168,-96.4998,4.0,7.191835649,168.2059514,9.53,'11111222,11111222,11111222' 
TABS,ioos:station:wmo:42045:1,2003-08-02T20:09:00Z,26.2168,-96.4998,4.0,7.502459597,169.6339121,9.5,'11111222,11111222,11111222' 
TABS,ioos:station:wmo:42045:1,2003-08-02T20:39:00Z,26.2168,-96.4998,4.0,7.161962022,167.4193688,9.76,'11111222,11111222,11111222' 
TABS,ioos:station:wmo:42045:1,2003-08-02T21:09:00Z,26.2168,-96.4998,4.0,7.322793183,165.2049101,9.16,'11111222,11111222,11111222' 
TABS,ioos:station:wmo:42045:1,2003-08-02T21:39:00Z,26.2168,-96.4998,4.0,7.00516952,166.797188,9.07,'11111222,11111222,11111222' 
TABS,ioos:station:wmo:42045:1,2003-08-02T22:09:00Z,26.2168,-96.4998,4.0,7.25585281,162.7639925,10.02,'11111222,11111222,11111222' 
TABS,ioos:station:wmo:42045:1,2003-08-02T22:39:00Z,26.2168,-96.4998,4.0,7.153083251,161.6666232,10.32,'11111222,11111222,11111222' 
TABS,ioos:station:wmo:42045:1,2003-08-02T23:09:00Z,26.2168,-96.4998,4.0,6.981640208,163.0966315,10.51,'11111222,11111222,11111222' 
TABS,ioos:station:wmo:42045:1,2003-08-02T23:39:00Z,26.2168,-96.4998,4.0,7.070954674,161.8727918,10.36,'11111222,11111222,11111222' 
TABS,ioos:station:wmo:42045:1,2003-08-03T00:09:00Z,26.2168,-96.4998,4.0,6.384238404,158.0155332,9.39,'11111222,11111222,11111222' 
TABS,ioos:station:wmo:42045:1,2003-08-03T00:39:00Z,26.2168,-96.4998,4.0,7.977092202,162.7919075,11.36,'11111222,11111222,11111222' 
TABS,ioos:station:wmo:42045:1,2003-08-03T01:09:00Z,26.2168,-96.4998,4.0,8.175946428,166.2019513,11.01,'11111222,11111222,11111222' 
TABS,ioos:station:wmo:42045:1,2003-08-03T01:39:00Z,26.2168,-96.4998,4.0,7.714175264,164.1262673,10.73,'11111222,11111222,11111222' 
TABS,ioos:station:wmo:42045:1,2003-08-03T02:09:00Z,26.2168,-96.4998,4.0,8.048384931,162.1281122,11.0,'11111222,11111222,11111222' 
TABS,ioos:station:wmo:42045:1,2003-08-03T02:39:00Z,26.2168,-96.4998,4.0,8.070198263,168.5649922,11.55,'11111222,11111222,11111222' 
TABS,ioos:station:wmo:42045:1,2003-08-03T03:09:00Z,26.2168,-96.4998,4.0,7.819015283,162.8167096,10.62,'11111222,11111222,11111222' 
TABS,ioos:station:wmo:42045:1,2003-08-03T03:39:00Z,26.2168,-96.4998,4.0,7.543719242,165.098183,10.19,'11111222,11111222,11111222' 
TABS,ioos:station:wmo:42045:1,2003-08-03T04:09:00Z,26.2168,-96.4998,4.0,8.01925807,168.9285095,11.31,'11111222,11111222,11111222' 
TABS,ioos:station:wmo:42045:1,2003-08-03T04:39:00Z,26.2168,-96.4998,4.0,7.95463387,168.3230297,10.96,'11111222,11111222,11111222' 
TABS,ioos:station:wmo:42045:1,2003-08-03T05:09:00Z,26.2168,-96.4998,4.0,7.740884962,168.2983717,10.77,'11111222,11111222,11111222' 
TABS,ioos:station:wmo:42045:1,2003-08-03T05:39:00Z,26.2168,-96.4998,4.0,7.415072488,171.3128153,10.47,'11111222,11111222,11111222' 
TABS,ioos:station:wmo:42045:1,2003-08-03T06:09:00Z,26.2168,-96.4998,4.0,7.52055849,174.0470467,10.24,'11111222,11111222,11111222' 
TABS,ioos:station:wmo:42045:1,2003-08-03T06:39:00Z,26.2168,-96.4998,4.0,7.475245815,177.8535875,11.26,'11111222,11111222,11111222' 
TABS,ioos:station:wmo:42045:1,2003-08-03T07:09:00Z,26.2168,-96.4998,4.0,7.1107032,180.8060033,9.96,'11111222,11111222,11111222' 
TABS,ioos:station:wmo:42045:1,2003-08-03T07:39:00Z,26.2168,-96.4998,4.0,6.68060626,179.2283098,9.68,'11111222,11111222,11111222' 
TABS,ioos:station:wmo:42045:1,2003-08-03T08:09:00Z,26.2168,-96.4998,4.0,6.507388109,177.2697179,9.84,'11111222,11111222,11111222' 
TABS,ioos:station:wmo:42045:1,2003-08-03T08:39:00Z,26.2168,-96.4998,4.0,6.500030769,180.1765042,9.42,'11111222,11111222,11111222' 
TABS,ioos:station:wmo:42045:1,2003-08-03T09:09:00Z,26.2168,-96.4998,4.0,6.871862921,178.6660552,9.78,'11111222,11111222,11111222' 
TABS,ioos:station:wmo:42045:1,2003-08-03T09:39:00Z,26.2168,-96.4998,4.0,6.163927319,182.0456142,8.91,'11111222,11111222,11111222' 
TABS,ioos:station:wmo:42045:1,2003-08-03T10:09:00Z,26.2168,-96.4998,4.0,6.248199741,182.935877,9.14,'11111222,11111222,11111222' 
TABS,ioos:station:wmo:42045:1,2003-08-03T10:39:00Z,26.2168,-96.4998,4.0,5.808278575,183.0596528,8.24,'11111222,11111222,11111222' 
TABS,ioos:station:wmo:42045:1,2003-08-03T11:09:00Z,26.2168,-96.4998,4.0,5.483292806,181.9859429,7.9,'11111222,11111222,11111222' 
TABS,ioos:station:wmo:42045:1,2003-08-03T11:39:00Z,26.2168,-96.4998,4.0,5.830420225,179.3123027,8.13,'11111222,11111222,11111222' 
TABS,ioos:station:wmo:42045:1,2003-08-03T12:09:00Z,26.2168,-96.4998,4.0,5.773820226,187.0636681,8.62,'11111222,11111222,11111222' 
TABS,ioos:station:wmo:42045:1,2003-08-03T12:39:00Z,26.2168,-96.4998,4.0,6.450937916,179.0231701,9.21,'11111222,11111222,11111222' 
TABS,ioos:station:wmo:42045:1,2003-08-03T13:09:00Z,26.2168,-96.4998,4.0,6.18531325,173.8748528,8.39,'11111222,11111222,11111222' 
TABS,ioos:station:wmo:42045:1,2003-08-03T13:39:00Z,26.2168,-96.4998,4.0,6.849036429,174.7224822,9.21,'11111222,11111222,11111222' 
TABS,ioos:station:wmo:42045:1,2003-08-03T14:09:00Z,26.2168,-96.4998,4.0,6.979147512,171.9281774,9.25,'11111222,11111222,11111222' 
TABS,ioos:station:wmo:42045:1,2003-08-03T14:39:00Z,26.2168,-96.4998,4.0,7.034912935,174.2896307,9.44,'11111222,11111222,11111222' 
TABS,ioos:station:wmo:42045:1,2003-08-03T15:09:00Z,26.2168,-96.4998,4.0,7.089689697,171.4015316,10.18,'11111222,11111222,11111222' 
TABS,ioos:station:wmo:42045:1,2003-08-03T15:39:00Z,26.2168,-96.4998,4.0,6.693466964,175.2010367,9.02,'11111222,11111222,11111222' 
TABS,ioos:station:wmo:42045:1,2003-08-03T16:09:00Z,26.2168,-96.4998,4.0,6.525534461,176.045972,8.63,'11111222,11111222,11111222' 
TABS,ioos:station:wmo:42045:1,2003-08-03T16:39:00Z,26.2168,-96.4998,4.0,6.27917192,172.1282139,8.48,'11111222,11111222,11111222' 
TABS,ioos:station:wmo:42045:1,2003-08-03T17:09:00Z,26.2168,-96.4998,4.0,5.956886771,169.6523733,8.19,'11111222,11111222,11111222' 
TABS,ioos:station:wmo:42045:1,2003-08-03T17:39:00Z,26.2168,-96.4998,4.0,6.326073032,170.5379104,8.97,'11111222,11111222,11111222' 
TABS,ioos:station:wmo:42045:1,2003-08-03T18:09:00Z,26.2168,-96.4998,4.0,5.197172308,168.3443727,7.08,'11111222,11111222,11111222' 
TABS,ioos:station:wmo:42045:1,2003-08-03T18:39:00Z,26.2168,-96.4998,4.0,6.305838564,162.0825031,8.39,'11111222,11111222,11111222' 
TABS,ioos:station:wmo:42045:1,2003-08-03T19:09:00Z,26.2168,-96.4998,4.0,6.214989944,156.2811492,8.41,'11111222,11111222,11111222' 
TABS,ioos:station:wmo:42045:1,2003-08-03T19:39:00Z,26.2168,-96.4998,4.0,6.142523911,156.8996572,8.17,'11111222,11111222,11111222' 
TABS,ioos:station:wmo:42045:1,2003-08-03T20:09:00Z,26.2168,-96.4998,4.0,6.30467287,157.6250709,9.14,'11111222,11111222,11111222' 
TABS,ioos:station:wmo:42045:1,2003-08-03T20:39:00Z,26.2168,-96.4998,4.0,6.039950331,161.5653047,8.88,'11111222,11111222,11111222' 
TABS,ioos:station:wmo:42045:1,2003-08-03T21:09:00Z,26.2168,-96.4998,4.0,6.768456249,160.4944828,8.97,'11111222,11111222,11111222' 
TABS,ioos:station:wmo:42045:1,2003-08-03T21:39:00Z,26.2168,-96.4998,4.0,6.51240355,163.6802179,9.3,'11111222,11111222,11111222' 
TABS,ioos:station:wmo:42045:1,2003-08-03T22:09:00Z,26.2168,-96.4998,4.0,6.786199231,163.3010053,9.16,'11111222,11111222,11111222' 
TABS,ioos:station:wmo:42045:1,2003-08-03T22:39:00Z,26.2168,-96.4998,4.0,6.628906395,162.4399795,8.7,'11111222,11111222,11111222' 
TABS,ioos:station:wmo:42045:1,2003-08-03T23:09:00Z,26.2168,-96.4998,4.0,6.630671158,159.9802381,8.77,'11111222,11111222,11111222' 
TABS,ioos:station:wmo:42045:1,2003-08-03T23:39:00Z,26.2168,-96.4998,4.0,6.282961085,159.8924935,8.21,'11111222,11111222,11111222' 
TABS,ioos:station:wmo:42045:1,2003-08-04T00:09:00Z,26.2168,-96.4998,4.0,5.964327288,161.0184912,7.9,'11111222,11111222,11111222' 
TABS,ioos:station:wmo:42045:1,2003-08-04T00:39:00Z,26.2168,-96.4998,4.0,6.049661148,163.4824348,8.2,'11111222,11111222,11111222' 
TABS,ioos:station:wmo:42045:1,2003-08-04T01:09:00Z,26.2168,-96.4998,4.0,6.176609102,160.7145871,8.3,'11111222,11111222,11111222' 
TABS,ioos:station:wmo:42045:1,2003-08-04T01:39:00Z,26.2168,-96.4998,4.0,6.343642487,161.9080463,8.7,'11111222,11111222,11111222' 
TABS,ioos:station:wmo:42045:1,2003-08-04T02:09:00Z,26.2168,-96.4998,4.0,6.362530943,161.3944435,8.47,'11111222,11111222,11111222' 
TABS,ioos:station:wmo:42045:1,2003-08-04T02:39:00Z,26.2168,-96.4998,4.0,6.265221465,159.5405444,8.89,'11111222,11111222,11111222' 
TABS,ioos:station:wmo:42045:1,2003-08-04T03:09:00Z,26.2168,-96.4998,4.0,5.609848483,164.2793194,7.85,'11111222,11111222,11111222' 
TABS,ioos:station:wmo:42045:1,2003-08-04T03:39:00Z,26.2168,-96.4998,4.0,6.279339137,166.2738226,8.53,'11111222,11111222,11111222' 
TABS,ioos:station:wmo:42045:1,2003-08-04T04:09:00Z,26.2168,-96.4998,4.0,6.666340825,169.2802652,9.81,'11111222,11111222,11111222' 
TABS,ioos:station:wmo:42045:1,2003-08-04T04:39:00Z,26.2168,-96.4998,4.0,6.929429991,165.5428633,9.5,'11111222,11111222,11111222' 
TABS,ioos:station:wmo:42045:1,2003-08-04T05:09:00Z,26.2168,-96.4998,4.0,6.560198168,172.9077097,9.2,'11111222,11111222,11111222' 
TABS,ioos:station:wmo:42045:1,2003-08-04T05:39:00Z,26.2168,-96.4998,4.0,6.583008431,169.8510824,8.91,'11111222,11111222,11111222' 
TABS,ioos:station:wmo:42045:1,2003-08-04T06:09:00Z,26.2168,-96.4998,4.0,6.560198168,172.9077097,9.15,'11111222,11111222,11111222' 
TABS,ioos:station:wmo:42045:1,2003-08-04T06:39:00Z,26.2168,-96.4998,4.0,6.893605733,175.2572867,9.43,'11111222,11111222,11111222' 
TABS,ioos:station:wmo:42045:1,2003-08-04T07:09:00Z,26.2168,-96.4998,4.0,6.799911764,175.6144402,9.0,'11111222,11111222,11111222' 
TABS,ioos:station:wmo:42045:1,2003-08-04T07:39:00Z,26.2168,-96.4998,4.0,6.786434999,170.3297149,9.21,'11111222,11111222,11111222' 
TABS,ioos:station:wmo:42045:1,2003-08-04T08:09:00Z,26.2168,-96.4998,4.0,6.194868844,169.9601076,8.29,'11111222,11111222,11111222' 
TABS,ioos:station:wmo:42045:1,2003-08-04T08:39:00Z,26.2168,-96.4998,4.0,6.083978961,169.3921502,8.18,'11111222,11111222,11111222' 
TABS,ioos:station:wmo:42045:1,2003-08-04T09:09:00Z,26.2168,-96.4998,4.0,5.520769874,169.036313,7.88,'11111222,11111222,11111222' 
TABS,ioos:station:wmo:42045:1,2003-08-04T09:39:00Z,26.2168,-96.4998,4.0,5.161211098,176.2230666,7.63,'11111222,11111222,11111222' 
TABS,ioos:station:wmo:42045:1,2003-08-04T10:09:00Z,26.2168,-96.4998,4.0,5.475837835,169.2648833,7.93,'11111222,11111222,11111222' 
TABS,ioos:station:wmo:42045:1,2003-08-04T10:39:00Z,26.2168,-96.4998,4.0,5.860528986,167.884997,7.76,'11111222,11111222,11111222' 
TABS,ioos:station:wmo:42045:1,2003-08-04T11:09:00Z,26.2168,-96.4998,4.0,5.62441108,163.0473137,7.42,'11111222,11111222,11111222' 
TABS,ioos:station:wmo:42045:1,2003-08-04T11:39:00Z,26.2168,-96.4998,4.0,4.68385525,166.7947433,6.63,'11111222,11111222,11111222' 
TABS,ioos:station:wmo:42045:1,2003-08-04T12:09:00Z,26.2168,-96.4998,4.0,4.790699323,170.1446726,6.44,'11111222,11111222,11111222' 
TABS,ioos:station:wmo:42045:1,2003-08-04T12:39:00Z,26.2168,-96.4998,4.0,4.85369962,171.4694648,6.65,'11111222,11111222,11111222' 
TABS,ioos:station:wmo:42045:1,2003-08-04T13:09:00Z,26.2168,-96.4998,4.0,5.690773234,173.1374602,7.83,'11111222,11111222,11111222' 
TABS,ioos:station:wmo:42045:1,2003-08-04T13:39:00Z,26.2168,-96.4998,4.0,5.464659184,175.8025519,7.41,'11111222,11111222,11111222' 
TABS,ioos:station:wmo:42045:1,2003-08-04T14:09:00Z,26.2168,-96.4998,4.0,4.621958459,174.4129796,6.51,'11111222,11111222,11111222' 
TABS,ioos:station:wmo:42045:1,2003-08-04T14:39:00Z,26.2168,-96.4998,4.0,4.34936777,174.5911149,6.07,'11111222,11111222,11111222' 
TABS,ioos:station:wmo:42045:1,2003-08-04T15:09:00Z,26.2168,-96.4998,4.0,4.146637192,172.3781925,5.62,'11111222,11111222,11111222' 
TABS,ioos:station:wmo:42045:1,2003-08-04T15:39:00Z,26.2168,-96.4998,4.0,3.958004548,167.8953713,5.66,'11111222,11111222,11111222' 
TABS,ioos:station:wmo:42045:1,2003-08-04T16:09:00Z,26.2168,-96.4998,4.0,4.552900175,165.1093599,6.41,'11111222,11111222,11111222' 
TABS,ioos:station:wmo:42045:1,2003-08-04T16:39:00Z,26.2168,-96.4998,4.0,4.497554891,164.7898198,6.73,'11111222,11111222,11111222' 
TABS,ioos:station:wmo:42045:1,2003-08-04T17:09:00Z,26.2168,-96.4998,4.0,4.671487986,168.6421973,6.56,'11111222,11111222,11111222' 
TABS,ioos:station:wmo:42045:1,2003-08-04T17:39:00Z,26.2168,-96.4998,4.0,3.606244584,171.8701271,5.53,'11111222,11111222,11111222' 
TABS,ioos:station:wmo:42045:1,2003-08-04T18:09:00Z,26.2168,-96.4998,4.0,3.892813892,163.8931144,5.68,'11111222,11111222,11111222' 
TABS,ioos:station:wmo:42045:1,2003-08-04T18:39:00Z,26.2168,-96.4998,4.0,4.450404476,167.8065721,6.1,'11111222,11111222,11111222' 